Time,TemperatureF,DewpointF,PressureIn,WindDirection,WindDirectionDegrees,WindSpeedMPH,WindSpeedGustMPH,Humidity,HourlyPrecipIn,Conditions,Clouds,dailyrainin,SoftwareType,DateUTC
2013-03-06 00:02:00,39.0,-99.9,30.06,ENE,58,25.0,29.0,-999,-99.99,,,-99.99,,2013-03-06 05:02:00,
2013-03-06 00:12:00,39.0,-99.9,30.06,ENE,58,25.0,29.0,-999,-99.99,,,-99.99,,2013-03-06 05:12:00,
2013-03-06 00:23:00,39.0,-99.9,30.06,ENE,58,25.0,29.0,-999,-99.99,,,-99.99,,2013-03-06 05:23:00,
2013-03-06 00:30:00,38.0,-99.9,30.07,ENE,73,26.0,32.0,-999,-99.99,,,-99.99,,2013-03-06 05:30:00,
2013-03-06 00:42:00,39.0,-99.9,30.07,ENE,69,26.0,32.0,-999,-99.99,,,-99.99,,2013-03-06 05:42:00,
2013-03-06 00:52:00,39.0,-99.9,30.07,ENE,69,26.0,32.0,-999,-99.99,,,-99.99,,2013-03-06 05:52:00,
2013-03-06 01:02:00,38.0,-99.9,30.07,ENE,73,26.0,32.0,-999,-99.99,,,-99.99,,2013-03-06 06:02:00,
2013-03-06 01:12:00,38.0,-99.9,30.07,ENE,73,26.0,32.0,-999,-99.99,,,-99.99,,2013-03-06 06:12:00,
2013-03-06 01:22:00,38.0,-99.9,30.07,ENE,73,26.0,32.0,-999,-99.99,,,-99.99,,2013-03-06 06:22:00,
2013-03-06 01:30:00,37.0,-99.9,30.09,NE,51,25.0,30.0,-999,-99.99,,,-99.99,,2013-03-06 06:30:00,
2013-03-06 01:42:00,38.0,-99.9,30.09,NE,54,26.0,31.0,-999,-99.99,,,-99.99,,2013-03-06 06:42:00,
2013-03-06 01:52:00,38.0,-99.9,30.09,NE,54,26.0,31.0,-999,-99.99,,,-99.99,,2013-03-06 06:52:00,
2013-03-06 02:02:00,37.0,-99.9,30.09,NE,51,25.0,30.0,-999,-99.99,,,-99.99,,2013-03-06 07:02:00,
2013-03-06 02:11:00,37.0,-99.9,30.09,NE,51,25.0,30.0,-999,-99.99,,,-99.99,,2013-03-06 07:11:00,
2013-03-06 02:22:00,37.0,-99.9,30.09,NE,51,25.0,30.0,-999,-99.99,,,-99.99,,2013-03-06 07:22:00,
2013-03-06 02:30:00,38.0,-99.9,30.10,ENE,57,27.0,33.0,-999,-99.99,,,-99.99,,2013-03-06 07:30:00,
2013-03-06 02:42:00,38.0,-99.9,30.09,NE,54,25.0,31.0,-999,-99.99,,,-99.99,,2013-03-06 07:42:00,
2013-03-06 02:52:00,38.0,-99.9,30.09,NE,54,25.0,31.0,-999,-99.99,,,-99.99,,2013-03-06 07:52:00,
2013-03-06 03:01:00,38.0,-99.9,30.10,ENE,57,27.0,33.0,-999,-99.99,,,-99.99,,2013-03-06 08:01:00,
2013-03-06 03:11:00,38.0,-99.9,30.10,ENE,57,27.0,33.0,-999,-99.99,,,-99.99,,2013-03-06 08:11:00,
2013-03-06 03:22:00,38.0,-99.9,30.10,ENE,57,27.0,33.0,-999,-99.99,,,-99.99,,2013-03-06 08:22:00,
2013-03-06 03:30:00,37.0,-99.9,30.11,NE,49,27.0,32.0,-999,-99.99,,,-99.99,,2013-03-06 08:30:00,
2013-03-06 03:42:00,37.0,-99.9,30.10,NE,49,26.0,31.0,-999,-99.99,,,-99.99,,2013-03-06 08:42:00,
2013-03-06 03:52:00,37.0,-99.9,30.10,NE,49,26.0,31.0,-999,-99.99,,,-99.99,,2013-03-06 08:52:00,
2013-03-06 04:00:00,37.0,-99.9,30.12,NE,45,24.0,29.0,-999,-99.99,,,-99.99,,2013-03-06 09:00:00,
2013-03-06 04:02:00,37.0,-99.9,30.11,NE,49,27.0,32.0,-999,-99.99,,,-99.99,,2013-03-06 09:02:00,
2013-03-06 04:12:00,37.0,-99.9,30.11,NE,49,27.0,32.0,-999,-99.99,,,-99.99,,2013-03-06 09:12:00,
2013-03-06 04:22:00,37.0,-99.9,30.11,NE,49,27.0,32.0,-999,-99.99,,,-99.99,,2013-03-06 09:22:00,
2013-03-06 04:42:00,37.0,-99.9,30.12,NE,45,24.0,29.0,-999,-99.99,,,-99.99,,2013-03-06 09:42:00,
2013-03-06 04:52:00,37.0,-99.9,30.12,NE,45,24.0,29.0,-999,-99.99,,,-99.99,,2013-03-06 09:52:00,
2013-03-06 05:30:00,36.0,-99.9,30.15,NNE,33,23.0,29.0,-999,-99.99,,,-99.99,,2013-03-06 10:30:00,
2013-03-06 05:42:00,37.0,-99.9,30.14,NE,45,22.0,27.0,-999,-99.99,,,-99.99,,2013-03-06 10:42:00,
2013-03-06 05:52:00,37.0,-99.9,30.14,NE,45,22.0,27.0,-999,-99.99,,,-99.99,,2013-03-06 10:52:00,
2013-03-06 06:02:00,36.0,-99.9,30.15,NNE,33,23.0,29.0,-999,-99.99,,,-99.99,,2013-03-06 11:02:00,
2013-03-06 06:11:00,36.0,-99.9,30.15,NNE,33,23.0,29.0,-999,-99.99,,,-99.99,,2013-03-06 11:11:00,
2013-03-06 06:23:00,36.0,-99.9,30.15,NNE,33,23.0,29.0,-999,-99.99,,,-99.99,,2013-03-06 11:23:00,
2013-03-06 06:30:00,36.0,-99.9,30.15,NE,41,26.0,32.0,-999,-99.99,,,-99.99,,2013-03-06 11:30:00,
2013-03-06 06:43:00,36.0,-99.9,30.15,NE,37,25.0,31.0,-999,-99.99,,,-99.99,,2013-03-06 11:43:00,
2013-03-06 06:53:00,36.0,-99.9,30.15,NE,37,25.0,31.0,-999,-99.99,,,-99.99,,2013-03-06 11:53:00,
2013-03-06 07:02:00,36.0,-99.9,30.15,NE,41,26.0,32.0,-999,-99.99,,,-99.99,,2013-03-06 12:02:00,
2013-03-06 07:12:00,36.0,-99.9,30.15,NE,41,26.0,32.0,-999,-99.99,,,-99.99,,2013-03-06 12:12:00,
2013-03-06 07:22:00,36.0,-99.9,30.15,NE,41,26.0,32.0,-999,-99.99,,,-99.99,,2013-03-06 12:22:00,
2013-03-06 07:30:00,35.0,-99.9,30.16,NE,45,26.0,31.0,-999,-99.99,,,-99.99,,2013-03-06 12:30:00,
2013-03-06 07:43:00,36.0,-99.9,30.15,NE,43,26.0,30.0,-999,-99.99,,,-99.99,,2013-03-06 12:43:00,
2013-03-06 07:53:00,36.0,-99.9,30.15,NE,43,26.0,30.0,-999,-99.99,,,-99.99,,2013-03-06 12:53:00,
2013-03-06 08:02:00,35.0,-99.9,30.16,NE,45,26.0,31.0,-999,-99.99,,,-99.99,,2013-03-06 13:02:00,
2013-03-06 08:12:00,35.0,-99.9,30.16,NE,45,26.0,31.0,-999,-99.99,,,-99.99,,2013-03-06 13:12:00,
2013-03-06 08:22:00,35.0,-99.9,30.16,NE,45,26.0,31.0,-999,-99.99,,,-99.99,,2013-03-06 13:22:00,
2013-03-06 08:30:00,35.0,-99.9,30.17,NE,47,28.0,34.0,-999,-99.99,,,-99.99,,2013-03-06 13:30:00,
2013-03-06 08:42:00,35.0,-99.9,30.16,NE,49,28.0,34.0,-999,-99.99,,,-99.99,,2013-03-06 13:42:00,
2013-03-06 08:52:00,35.0,-99.9,30.16,NE,49,28.0,34.0,-999,-99.99,,,-99.99,,2013-03-06 13:52:00,
2013-03-06 09:02:00,35.0,-99.9,30.17,NE,47,28.0,34.0,-999,-99.99,,,-99.99,,2013-03-06 14:02:00,
2013-03-06 09:12:00,35.0,-99.9,30.17,NE,47,28.0,34.0,-999,-99.99,,,-99.99,,2013-03-06 14:12:00,
2013-03-06 09:22:00,35.0,-99.9,30.17,NE,47,28.0,34.0,-999,-99.99,,,-99.99,,2013-03-06 14:22:00,
2013-03-06 09:30:00,37.0,-99.9,30.18,NE,52,28.0,34.0,-999,-99.99,,,-99.99,,2013-03-06 14:30:00,
2013-03-06 09:42:00,36.0,-99.9,30.18,NE,54,27.0,33.0,-999,-99.99,,,-99.99,,2013-03-06 14:42:00,
2013-03-06 09:53:00,36.0,-99.9,30.18,NE,54,27.0,33.0,-999,-99.99,,,-99.99,,2013-03-06 14:53:00,
2013-03-06 10:02:00,37.0,-99.9,30.18,NE,52,28.0,34.0,-999,-99.99,,,-99.99,,2013-03-06 15:02:00,
2013-03-06 10:12:00,37.0,-99.9,30.18,NE,52,28.0,34.0,-999,-99.99,,,-99.99,,2013-03-06 15:12:00,
2013-03-06 10:22:00,37.0,-99.9,30.18,NE,52,28.0,34.0,-999,-99.99,,,-99.99,,2013-03-06 15:22:00,
2013-03-06 10:30:00,38.0,-99.9,30.19,East,84,29.0,39.0,-999,-99.99,,,-99.99,,2013-03-06 15:30:00,
2013-03-06 10:42:00,38.0,-99.9,30.18,East,81,30.0,34.0,-999,-99.99,,,-99.99,,2013-03-06 15:42:00,
2013-03-06 10:52:00,38.0,-99.9,30.18,East,81,30.0,34.0,-999,-99.99,,,-99.99,,2013-03-06 15:52:00,
2013-03-06 11:02:00,38.0,-99.9,30.19,East,84,29.0,39.0,-999,-99.99,,,-99.99,,2013-03-06 16:02:00,
2013-03-06 11:12:00,38.0,-99.9,30.19,East,84,29.0,39.0,-999,-99.99,,,-99.99,,2013-03-06 16:12:00,
2013-03-06 11:22:00,38.0,-99.9,30.19,East,84,29.0,39.0,-999,-99.99,,,-99.99,,2013-03-06 16:22:00,
2013-03-06 11:30:00,38.0,-99.9,30.21,East,87,29.0,33.0,-999,-99.99,,,-99.99,,2013-03-06 16:30:00,
2013-03-06 11:42:00,38.0,-99.9,30.20,East,81,28.0,36.0,-999,-99.99,,,-99.99,,2013-03-06 16:42:00,
2013-03-06 11:52:00,38.0,-99.9,30.20,East,81,28.0,36.0,-999,-99.99,,,-99.99,,2013-03-06 16:52:00,
2013-03-06 12:01:00,38.0,-99.9,30.21,East,87,29.0,33.0,-999,-99.99,,,-99.99,,2013-03-06 17:01:00,
2013-03-06 12:11:00,38.0,-99.9,30.21,East,87,29.0,33.0,-999,-99.99,,,-99.99,,2013-03-06 17:11:00,
2013-03-06 12:22:00,38.0,-99.9,30.21,East,87,29.0,33.0,-999,-99.99,,,-99.99,,2013-03-06 17:22:00,
2013-03-06 12:30:00,37.0,-99.9,30.21,ENE,76,26.0,30.0,-999,-99.99,,,-99.99,,2013-03-06 17:30:00,
2013-03-06 13:02:00,37.0,-99.9,30.21,ENE,76,26.0,30.0,-999,-99.99,,,-99.99,,2013-03-06 18:02:00,
2013-03-06 13:29:00,37.0,-99.9,30.21,ENE,76,26.0,30.0,-999,-99.99,,,-99.99,,2013-03-06 18:29:00,
2013-03-06 13:30:00,37.0,-99.9,30.19,East,87,24.0,29.0,-999,-99.99,,,-99.99,,2013-03-06 18:30:00,
2013-03-06 13:42:00,37.0,-99.9,30.21,East,81,26.0,31.0,-999,-99.99,,,-99.99,,2013-03-06 18:42:00,
2013-03-06 13:53:00,37.0,-99.9,30.21,East,81,26.0,31.0,-999,-99.99,,,-99.99,,2013-03-06 18:53:00,
2013-03-06 14:02:00,37.0,-99.9,30.19,East,87,24.0,29.0,-999,-99.99,,,-99.99,,2013-03-06 19:02:00,
2013-03-06 14:11:00,37.0,-99.9,30.19,East,87,24.0,29.0,-999,-99.99,,,-99.99,,2013-03-06 19:11:00,
2013-03-06 14:22:00,37.0,-99.9,30.19,East,87,24.0,29.0,-999,-99.99,,,-99.99,,2013-03-06 19:22:00,
2013-03-06 14:30:00,38.0,-99.9,30.18,ENE,65,26.0,31.0,-999,-99.99,,,-99.99,,2013-03-06 19:30:00,
2013-03-06 14:43:00,37.0,-99.9,30.19,ENE,73,25.0,28.0,-999,-99.99,,,-99.99,,2013-03-06 19:43:00,
2013-03-06 14:53:00,37.0,-99.9,30.19,ENE,73,25.0,28.0,-999,-99.99,,,-99.99,,2013-03-06 19:53:00,
2013-03-06 15:02:00,38.0,-99.9,30.18,ENE,65,26.0,31.0,-999,-99.99,,,-99.99,,2013-03-06 20:02:00,
2013-03-06 15:12:00,38.0,-99.9,30.18,ENE,65,26.0,31.0,-999,-99.99,,,-99.99,,2013-03-06 20:12:00,
2013-03-06 15:23:00,38.0,-99.9,30.18,ENE,65,26.0,31.0,-999,-99.99,,,-99.99,,2013-03-06 20:23:00,
2013-03-06 15:30:00,38.0,-99.9,30.18,ENE,60,27.0,31.0,-999,-99.99,,,-99.99,,2013-03-06 20:30:00,
2013-03-06 15:43:00,37.0,-99.9,30.18,ENE,60,29.0,34.0,-999,-99.99,,,-99.99,,2013-03-06 20:43:00,
2013-03-06 15:53:00,37.0,-99.9,30.18,ENE,60,29.0,34.0,-999,-99.99,,,-99.99,,2013-03-06 20:53:00,
2013-03-06 16:02:00,38.0,-99.9,30.18,ENE,60,27.0,31.0,-999,-99.99,,,-99.99,,2013-03-06 21:02:00,
2013-03-06 16:12:00,38.0,-99.9,30.18,ENE,60,27.0,31.0,-999,-99.99,,,-99.99,,2013-03-06 21:12:00,
2013-03-06 16:23:00,38.0,-99.9,30.18,ENE,60,27.0,31.0,-999,-99.99,,,-99.99,,2013-03-06 21:23:00,
2013-03-06 16:30:00,37.0,-99.9,30.18,NE,50,30.0,35.0,-999,-99.99,,,-99.99,,2013-03-06 21:30:00,
2013-03-06 16:43:00,37.0,-99.9,30.18,NE,50,30.0,34.0,-999,-99.99,,,-99.99,,2013-03-06 21:43:00,
2013-03-06 16:52:00,37.0,-99.9,30.18,NE,50,30.0,34.0,-999,-99.99,,,-99.99,,2013-03-06 21:52:00,
2013-03-06 17:02:00,37.0,-99.9,30.18,NE,50,30.0,35.0,-999,-99.99,,,-99.99,,2013-03-06 22:02:00,
2013-03-06 17:12:00,37.0,-99.9,30.18,NE,50,30.0,35.0,-999,-99.99,,,-99.99,,2013-03-06 22:12:00,
2013-03-06 17:22:00,37.0,-99.9,30.18,NE,50,30.0,35.0,-999,-99.99,,,-99.99,,2013-03-06 22:22:00,
2013-03-06 17:30:00,37.0,-99.9,30.19,NE,52,28.0,34.0,-999,-99.99,,,-99.99,,2013-03-06 22:30:00,
2013-03-06 17:42:00,37.0,-99.9,30.19,NE,52,30.0,35.0,-999,-99.99,,,-99.99,,2013-03-06 22:42:00,
2013-03-06 17:52:00,37.0,-99.9,30.19,NE,52,30.0,35.0,-999,-99.99,,,-99.99,,2013-03-06 22:52:00,
2013-03-06 18:02:00,37.0,-99.9,30.19,NE,52,28.0,34.0,-999,-99.99,,,-99.99,,2013-03-06 23:02:00,
2013-03-06 18:11:00,37.0,-99.9,30.19,NE,52,28.0,34.0,-999,-99.99,,,-99.99,,2013-03-06 23:11:00,
2013-03-06 18:22:00,37.0,-99.9,30.19,NE,52,28.0,34.0,-999,-99.99,,,-99.99,,2013-03-06 23:22:00,
2013-03-06 18:30:00,38.0,-99.9,30.20,ENE,72,28.0,34.0,-999,-99.99,,,-99.99,,2013-03-06 23:30:00,
2013-03-06 18:42:00,38.0,-99.9,30.20,ENE,71,26.0,33.0,-999,-99.99,,,-99.99,,2013-03-06 23:42:00,
2013-03-06 18:52:00,38.0,-99.9,30.20,ENE,71,26.0,33.0,-999,-99.99,,,-99.99,,2013-03-06 23:52:00,
2013-03-06 19:02:00,38.0,-99.9,30.20,ENE,72,28.0,34.0,-999,-99.99,,,-99.99,,2013-03-07 00:02:00,
2013-03-06 19:11:00,38.0,-99.9,30.20,ENE,72,28.0,34.0,-999,-99.99,,,-99.99,,2013-03-07 00:11:00,
2013-03-06 19:22:00,38.0,-99.9,30.20,ENE,72,28.0,34.0,-999,-99.99,,,-99.99,,2013-03-07 00:22:00,
2013-03-06 19:30:00,38.0,-99.9,30.20,ENE,72,28.0,34.0,-999,-99.99,,,-99.99,,2013-03-07 00:30:00,
2013-03-06 19:42:00,38.0,-99.9,30.20,ENE,75,26.0,33.0,-999,-99.99,,,-99.99,,2013-03-07 00:42:00,
2013-03-06 19:52:00,38.0,-99.9,30.20,ENE,75,26.0,33.0,-999,-99.99,,,-99.99,,2013-03-07 00:52:00,
2013-03-06 20:02:00,38.0,-99.9,30.20,ENE,72,28.0,34.0,-999,-99.99,,,-99.99,,2013-03-07 01:02:00,
2013-03-06 20:12:00,38.0,-99.9,30.20,ENE,72,28.0,34.0,-999,-99.99,,,-99.99,,2013-03-07 01:12:00,
2013-03-06 20:22:00,38.0,-99.9,30.20,ENE,72,28.0,34.0,-999,-99.99,,,-99.99,,2013-03-07 01:22:00,
2013-03-06 20:30:00,37.0,-99.9,30.19,ENE,75,26.0,32.0,-999,-99.99,,,-99.99,,2013-03-07 01:30:00,
2013-03-06 20:42:00,37.0,-99.9,30.19,ENE,71,26.0,33.0,-999,-99.99,,,-99.99,,2013-03-07 01:42:00,
2013-03-06 20:52:00,37.0,-99.9,30.19,ENE,71,26.0,33.0,-999,-99.99,,,-99.99,,2013-03-07 01:52:00,
2013-03-06 21:01:00,37.0,-99.9,30.19,ENE,75,26.0,32.0,-999,-99.99,,,-99.99,,2013-03-07 02:01:00,
2013-03-06 21:11:00,37.0,-99.9,30.19,ENE,75,26.0,32.0,-999,-99.99,,,-99.99,,2013-03-07 02:11:00,
2013-03-06 21:22:00,37.0,-99.9,30.19,ENE,75,26.0,32.0,-999,-99.99,,,-99.99,,2013-03-07 02:22:00,
2013-03-06 21:30:00,37.0,-99.9,30.19,ENE,72,28.0,31.0,-999,-99.99,,,-99.99,,2013-03-07 02:30:00,
2013-03-06 22:02:00,37.0,-99.9,30.19,ENE,72,28.0,31.0,-999,-99.99,,,-99.99,,2013-03-07 03:02:00,
2013-03-06 22:12:00,37.0,-99.9,30.19,ENE,72,28.0,31.0,-999,-99.99,,,-99.99,,2013-03-07 03:12:00,
2013-03-06 22:22:00,37.0,-99.9,30.19,ENE,72,28.0,31.0,-999,-99.99,,,-99.99,,2013-03-07 03:22:00,
2013-03-06 22:30:00,37.0,-99.9,30.17,East,82,28.0,34.0,-999,-99.99,,,-99.99,,2013-03-07 03:30:00,
2013-03-06 22:42:00,36.0,-99.9,30.18,ENE,75,27.0,31.0,-999,-99.99,,,-99.99,,2013-03-07 03:42:00,
2013-03-06 22:52:00,36.0,-99.9,30.18,ENE,75,27.0,31.0,-999,-99.99,,,-99.99,,2013-03-07 03:52:00,
2013-03-06 23:02:00,37.0,-99.9,30.17,East,82,28.0,34.0,-999,-99.99,,,-99.99,,2013-03-07 04:02:00,
2013-03-06 23:12:00,37.0,-99.9,30.17,East,82,28.0,34.0,-999,-99.99,,,-99.99,,2013-03-07 04:12:00,
2013-03-06 23:22:00,37.0,-99.9,30.17,East,82,28.0,34.0,-999,-99.99,,,-99.99,,2013-03-07 04:22:00,
2013-03-06 23:30:00,37.0,-99.9,30.18,East,82,27.0,32.0,-999,-99.99,,,-99.99,,2013-03-07 04:30:00,
2013-03-06 23:42:00,37.0,-99.9,30.17,East,83,27.0,34.0,-999,-99.99,,,-99.99,,2013-03-07 04:42:00,
2013-03-06 23:52:00,37.0,-99.9,30.17,East,83,27.0,34.0,-999,-99.99,,,-99.99,,2013-03-07 04:52:00,